Location: Baia de Cri?
(46.1667°N, 22.7167°E)
Time: 20:44:38
(UTC+00:00)

Cosmos 1763 Rocket - Pass Details

Date: 15 January 2026
Orbit: 729 x 773 km, 74.0° (Epoch: 10 February)

Event Time Altitude Azimuth Distance (km) Brightness Sun altitude
Exits shadow 04:54:15 - 339° (NNW) 2,846 6.1 -12.4°
Reaches altitude 10° 04:55:48 10° 341° (NNW) 2,237 5.6 -12.2°
Maximum altitude 05:00:52 78° 68° (ENE) 753 3.6 -11.4°
Drops below altitude 10° 05:05:56 10° 155° (SSE) 2,236 6.6 -10.5°
Sets 05:08:17 0° 157° (SSE) 3,160 7.4 -10.1°
